[[{"header":{"parameterUnit":"m.s-1","parameterCategory":1,"la1":30.2991,"la2":30.254,"lo1":-89.0895,"lo2":-89.0444,"dy":0.0017,"dx":0.0017,"nx":28,"ny":28,"refTime":"2025-07-29T03:00:00:Z","depth":0,"parameterNumber":2,"parameterNumberName":"U-component_of_WINDS"},"data":[0,0,0,0,0,0,0,0,0,0,0,0,0,0,0,0,0,0,0,0,0,0,0,0,0,0,0,0,0,0,0,0,0,0,0,0,0,0,0,0,0,0,0,0,0,0,0,0,0,0,0,0,0,0,0,0,0,0,2.4605,2.4606,0,2.4686,2.4687,2.4688,2.4672,2.4671,2.467,2.4668,2.4753,2.4756,2.476,0,0,0,0,0,0,0,0,0,0,0,0,0,2.444,2.4443,2.4605,2.4606,2.4607,2.4686,2.4687,2.4688,2.4673,2.4671,2.4669,2.4667,2.4751,2.4756,2.476,0,0,0,0,0,0,0,0,0,0,0,0,0,2.4515,2.4444,2.4605,2.4609,2.461,2.4686,2.4687,2.4688,2.4673,2.4671,2.4669,2.4667,2.475,2.4755,2.4761,2.4838,0,0,2.4777,2.478,0,0,0,0,0,0,0,0,2.4511,2.4521,2.4607,2.4609,2.461,2.4667,2.466,2.4739,2.4674,2.4649,2.4668,2.4666,2.4726,2.4733,2.4753,2.4842,2.4846,2.4778,2.4781,2.4783,2.4785,0,0,0,0,0,0,0,2.4506,2.4518,2.4637,2.4609,2.461,2.4607,2.4616,2.4675,2.4699,2.4651,2.465,2.466,2.4726,2.4748,2.4755,2.4847,2.4778,2.4782,2.4786,2.4788,2.5005,2.5007,0,0,0,0,0,0,2.4499,2.4513,2.4635,2.464,2.4554,2.4612,2.4621,2.4651,2.4698,2.4703,2.4662,2.4659,2.474,2.4749,2.4758,2.4853,2.4783,2.4788,2.4791,2.5002,2.5005,2.5008,0,0,0,0,0,0,2.4495,2.451,2.4631,2.4576,2.4592,2.4617,2.4651,2.4654,2.4675,2.4706,2.4711,2.4679,2.4739,2.475,2.4818,2.4855,2.4791,2.4796,2.4999,2.5003,2.5006,2.5042,0,0,0,0,0,0,2.4491,2.4509,2.4538,2.4577,2.4595,2.469,2.4653,2.4657,2.4685,2.4682,2.4724,2.4729,2.4738,2.481,2.4824,2.4862,2.48,2.4996,2.5001,2.5005,2.5038,2.5046,2.5054,0,0,0,0,0,2.4485,2.4544,2.4539,2.4554,2.4631,2.4692,2.4702,2.471,2.4688,2.4717,2.4737,2.4727,2.4849,2.4818,2.4832,2.4873,2.4994,2.4999,2.5005,2.5034,2.5045,2.5054,0,0,0,0,0,0,2.4509,2.4549,2.4544,2.4618,2.4652,2.4689,2.4727,2.4721,2.4762,2.4758,2.4768,2.4777,2.4847,2.4866,2.483,2.4951,2.4918,2.4927,2.4935,2.4946,2.4954,2.4948,2.4804,0,0,0,0,0,2.4522,2.4568,2.4601,2.4663,2.468,2.4701,2.4728,2.4731,2.4767,2.4781,2.4806,2.4841,2.4887,2.4917,2.4962,2.504,2.505,2.5075,2.5083,2.509,2.5098,2.5142,2.5154,2.5026,2.5026,2.5026,0,0,2.4551,2.4579,2.4607,2.4669,2.4695,2.4743,2.4713,2.4764,2.48,2.4789,2.4855,2.4874,2.4914,2.4988,2.5022,2.5007,2.5135,2.5097,2.5102,2.5107,2.5149,2.5161,2.5172,2.503,2.5029,2.5029,0,0,2.4629,2.4654,2.4709,2.4737,2.4777,2.479,2.4804,2.4842,2.4855,2.4921,2.4914,2.4957,2.5036,2.5066,2.5091,2.5181,2.5174,2.5195,2.5238,2.5281,2.5291,2.53,2.5333,2.5345,2.5202,2.5203,2.5203,0,2.466,2.4731,2.4738,2.4791,2.4819,2.4811,2.4867,2.4894,2.4947,2.4966,2.4948,2.5048,2.5075,2.5156,2.5178,2.5198,2.5215,2.519,2.5289,2.5298,2.5307,2.5339,2.5351,2.5205,2.5205,2.5204,2.5204,0,2.4768,2.4817,2.4857,2.4908,2.4941,2.4995,2.5012,2.5043,2.5045,2.506,2.5129,2.516,2.5211,2.5231,2.5232,2.5313,2.5302,2.5287,2.5254,2.5321,2.5351,2.5363,2.5208,2.5207,2.5207,2.5206,0,0,2.4862,2.4918,2.4932,2.4956,2.5001,2.5039,2.5094,2.5143,2.5171,2.5208,2.5255,2.5323,2.5309,2.5337,2.5343,2.538,2.5451,2.536,2.5361,2.5377,2.5543,2.5555,2.5569,2.5446,2.5449,2.5451,2.554,0,2.4944,2.504,2.5049,2.5135,2.5182,2.5176,2.5223,2.5256,2.5273,2.5315,2.5333,2.5381,2.5359,2.5376,2.5414,2.5435,2.5485,2.5428,2.5491,2.5493,2.5482,2.5585,2.5597,2.568,2.5552,2.5554,2.5555,0,2.5053,2.5093,2.5184,2.5224,2.5243,2.5286,2.5333,2.5373,2.5411,2.542,2.5453,2.5453,2.5511,2.5476,2.5556,2.5517,2.5543,2.5558,2.5561,2.5568,2.5529,2.5595,2.5707,2.5719,2.5574,2.5572,2.5571,0,2.5114,2.5191,2.5256,2.5276,2.5323,2.5354,2.5375,2.5411,2.544,2.5482,2.5501,2.5549,2.5575,2.5612,2.5626,2.5599,2.5705,2.5671,2.5715,2.5715,2.5739,2.5737,2.5857,2.5754,2.5754,2.5754,2.5753,0,2.5205,2.5261,2.5284,2.5324,2.5387,2.5397,2.546,2.5479,2.5511,2.5556,2.5553,2.5595,2.561,2.5655,2.5666,2.5731,2.5742,2.5752,2.5755,2.5753,2.5752,2.5771,2.5766,2.5757,2.5756,2.5756,2.5755,0,2.5284,2.5301,2.5372,2.5411,2.5422,2.5467,2.5501,2.554,2.5556,2.5612,2.5626,2.5651,2.5704,2.5721,2.5784,2.5792,2.5868,2.5865,2.5855,2.5856,2.59,2.5896,2.6036,2.6056,2.5939,2.5941,2.5941,0,2.5341,2.5384,2.5429,2.5458,2.5481,2.5528,2.5558,2.5571,2.5603,2.565,2.5684,2.5735,2.5778,2.5862,2.5887,2.5935,2.5934,2.598,2.5941,2.5939,2.5936,2.5934,2.5939,2.5987,2.5989,2.599,2.599,0,2.5442,2.5449,2.5492,2.554,2.5577,2.5615,2.5651,2.5676,2.5693,2.573,2.5783,2.5816,2.5881,2.5933,2.5983,2.6006,2.6002,2.6002,2.6015,2.6015,2.6008,2.6013,2.5876,2.5999,2.5998,2.5998,2.5997,2.5997,2.5513,2.5551,2.5589,2.5638,2.5667,2.5702,2.5741,2.5762,2.5807,2.586,2.5865,2.5923,2.5961,2.6028,2.6053,2.61,2.6087,2.6105,2.611,2.6115,2.6119,2.6,2.6109,2.6108,2.6108,2.6108,2.6108,0,2.5614,2.5638,2.5683,2.5735,2.5774,2.5767,2.5807,2.5841,2.5892,2.5928,2.5969,2.6032,2.6083,2.6111,2.6162,2.6194,2.6194,2.6207,2.6205,2.6211,2.6127,2.6111,2.6207,2.6207,2.6207,2.6207,2.6207,2.6207,2.5671,2.5737,2.5748,2.5828,2.5852,2.5909,2.5933,2.5965,2.5994,2.6064,2.6106,2.6124,2.6158,2.6211,2.6258,2.6265,2.6285,2.63,2.6306,2.6227,2.6217,2.6207,2.6192,2.6304,2.6304,2.6386,2.6387,2.6388]},{"header":{"parameterUnit":"m.s-1","parameterCategory":1,"la1":30.2991,"la2":30.254,"lo1":-89.0895,"lo2":-89.0444,"dy":0.0017,"dx":0.0017,"nx":28,"ny":28,"refTime":"2025-07-29T03:00:00:Z","depth":0,"parameterNumber":3,"parameterNumberName":"V-component_of_WINDS"},"data":[0,0,0,0,0,0,0,0,0,0,0,0,0,0,0,0,0,0,0,0,0,0,0,0,0,0,0,0,0,0,0,0,0,0,0,0,0,0,0,0,0,0,0,0,0,0,0,0,0,0,0,0,0,0,0,0,0,0,4.4059,4.406,0,4.4094,4.4094,4.4094,4.4094,4.4094,4.4093,4.4093,4.4123,4.4124,4.4125,0,0,0,0,0,0,0,0,0,0,0,0,0,4.399,4.3991,4.4059,4.406,4.406,4.4093,4.4094,4.4094,4.4094,4.4094,4.4093,4.4093,4.4123,4.4124,4.4125,0,0,0,0,0,0,0,0,0,0,0,0,0,4.4021,4.3991,4.4059,4.4064,4.4065,4.4093,4.4094,4.4094,4.4094,4.4094,4.4093,4.4092,4.4122,4.4124,4.4126,4.415,0,0,4.4131,4.4132,0,0,0,0,0,0,0,0,4.402,4.4024,4.4063,4.4064,4.4065,4.4089,4.408,4.4113,4.4095,4.4083,4.4093,4.4092,4.4112,4.4114,4.4122,4.4151,4.4152,4.4131,4.4132,4.4133,4.4134,0,0,0,0,0,0,0,4.4017,4.4022,4.4073,4.4064,4.4065,4.4063,4.4067,4.4086,4.41,4.4084,4.4084,4.4088,4.4112,4.412,4.4123,4.4153,4.4131,4.4133,4.4134,4.4135,4.4203,4.4204,0,0,0,0,0,0,4.4015,4.4021,4.4072,4.4074,4.404,4.4065,4.4069,4.4082,4.41,4.4103,4.4089,4.4088,4.4118,4.4121,4.4124,4.4154,4.4133,4.4135,4.4136,4.4203,4.4203,4.4204,0,0,0,0,0,0,4.4013,4.4019,4.407,4.4047,4.4054,4.4067,4.4081,4.4083,4.4091,4.4104,4.4106,4.4095,4.4117,4.4121,4.4144,4.4155,4.4136,4.4137,4.4202,4.4203,4.4204,4.4213,0,0,0,0,0,0,4.4011,4.4019,4.4029,4.4048,4.4055,4.4091,4.4082,4.4084,4.4095,4.4094,4.411,4.4112,4.4117,4.4141,4.4145,4.4157,4.4139,4.4201,4.4202,4.4204,4.4212,4.4214,4.4216,0,0,0,0,0,4.4009,4.4029,4.403,4.4036,4.4068,4.4091,4.4095,4.4102,4.4096,4.4105,4.4114,4.4112,4.4153,4.4143,4.4148,4.416,4.42,4.4202,4.4203,4.4211,4.4214,4.4216,0,0,0,0,0,0,4.4009,4.4031,4.4032,4.4059,4.4074,4.4091,4.4104,4.4105,4.412,4.4118,4.4124,4.4128,4.415,4.4157,4.4146,4.4185,4.4175,4.4178,4.4179,4.4182,4.4184,4.4182,4.414,0,0,0,0,0,4.4013,4.4032,4.4049,4.4071,4.4079,4.409,4.41,4.4104,4.4119,4.4124,4.4134,4.4147,4.4163,4.4173,4.4188,4.4213,4.4216,4.4223,4.4226,4.4228,4.423,4.4244,4.4247,4.421,4.421,4.421,0,0,4.402,4.4034,4.4045,4.4072,4.4083,4.4101,4.4095,4.4114,4.4127,4.4126,4.4149,4.4157,4.4171,4.4195,4.4206,4.4202,4.4241,4.423,4.4231,4.4232,4.4246,4.4249,4.4252,4.4211,4.4211,4.4211,0,0,4.4041,4.4055,4.4075,4.4087,4.4106,4.4113,4.4118,4.4136,4.4142,4.4165,4.4165,4.418,4.4207,4.4217,4.4226,4.4253,4.4252,4.4258,4.427,4.4283,4.4286,4.4289,4.4298,4.4302,4.426,4.426,4.426,0,4.4047,4.4076,4.4084,4.4104,4.4116,4.4118,4.4138,4.4149,4.4171,4.4178,4.4173,4.4208,4.4218,4.4244,4.4251,4.4258,4.4263,4.4256,4.4285,4.4288,4.4291,4.43,4.4303,4.4261,4.4261,4.4261,4.426,0,4.4082,4.4102,4.4115,4.4139,4.4152,4.4171,4.4182,4.4194,4.4197,4.4205,4.4228,4.424,4.4258,4.4264,4.4266,4.4291,4.4288,4.4284,4.4275,4.4295,4.4303,4.4307,4.4262,4.4261,4.4261,4.4261,0,0,4.4104,4.4133,4.4138,4.4149,4.417,4.4185,4.4204,4.4224,4.4234,4.4249,4.4264,4.4288,4.4285,4.4295,4.4298,4.431,4.4331,4.4305,4.4306,4.431,4.4359,4.4362,4.4366,4.4331,4.4331,4.4332,4.4358,0,4.4128,4.4165,4.4174,4.4204,4.4223,4.4226,4.4243,4.4257,4.4265,4.428,4.4288,4.4305,4.43,4.4306,4.4318,4.4326,4.4341,4.4324,4.4344,4.4345,4.4341,4.4371,4.4373,4.4397,4.4361,4.4362,4.4362,0,4.416,4.4179,4.4212,4.4232,4.424,4.4255,4.4274,4.4289,4.4305,4.431,4.4322,4.4325,4.4344,4.4334,4.436,4.4349,4.4357,4.4363,4.4364,4.4366,4.4355,4.4373,4.4405,4.4409,4.4368,4.4368,4.4367,0,4.4173,4.4206,4.423,4.424,4.4263,4.4274,4.4284,4.4299,4.4311,4.4327,4.4334,4.4351,4.4361,4.4373,4.438,4.4373,4.4406,4.4397,4.441,4.4409,4.4416,4.4415,4.445,4.4422,4.4422,4.4422,4.4422,0,4.4199,4.4219,4.4237,4.4252,4.4274,4.4284,4.4305,4.4315,4.4329,4.4345,4.4348,4.4362,4.4371,4.4386,4.4391,4.4412,4.4416,4.442,4.4421,4.442,4.4419,4.4425,4.4424,4.4423,4.4422,4.4422,4.4422,0,4.4217,4.4229,4.4256,4.4278,4.4283,4.4299,4.4316,4.433,4.4339,4.4359,4.4364,4.4377,4.4395,4.4404,4.4425,4.4429,4.4453,4.4453,4.4448,4.4449,4.4461,4.446,4.45,4.4506,4.4474,4.4475,4.4475,0,4.4232,4.4248,4.4272,4.4284,4.4295,4.4314,4.4326,4.4336,4.4349,4.4369,4.438,4.4399,4.4415,4.4444,4.4454,4.4471,4.4471,4.4484,4.4474,4.4472,4.4471,4.447,4.4472,4.4486,4.4486,4.4487,4.4487,0,4.4258,4.4264,4.4283,4.4305,4.432,4.4337,4.4353,4.4362,4.4374,4.4388,4.4408,4.4421,4.4444,4.4463,4.4481,4.4489,4.449,4.449,4.4494,4.4493,4.449,4.4492,4.4453,4.4489,4.4489,4.4489,4.4489,4.4489,4.4275,4.429,4.431,4.4331,4.4345,4.436,4.4375,4.4387,4.4404,4.4426,4.443,4.4451,4.4467,4.4491,4.45,4.4516,4.4513,4.4518,4.452,4.4521,4.4522,4.4488,4.4519,4.4519,4.4519,4.4519,4.4519,0,4.4302,4.4315,4.4335,4.4359,4.4375,4.4377,4.4395,4.4408,4.4428,4.4443,4.4459,4.4482,4.4501,4.4513,4.4531,4.4542,4.4542,4.4546,4.4545,4.4547,4.4524,4.4519,4.4545,4.4545,4.4545,4.4545,4.4545,4.4545,4.4318,4.4343,4.4352,4.4384,4.4396,4.4419,4.4429,4.4443,4.4456,4.4482,4.4499,4.4507,4.4521,4.4541,4.4557,4.456,4.4567,4.4571,4.4574,4.4551,4.4549,4.4546,4.4541,4.4572,4.4572,4.4596,4.4596,4.4596]}]]